Regional Weather Roundup
Issued by NWS

Home | Current Version | Previous Version | Text Only | Print | Product List | Glossary Off
Versions: 1 2 3 4 5 6 7 8 9 10 11 12 13 14 15 16 17 18 19 20 21 22 23 24 25 26 27 28 29 30 31 32 33 34 35 36 37 38 39 40 41 42 43 44 45 46 47 48 49 50

000
ASUS44 KMEG 240010
RWRTN
TENNESSEE HOURLY STATE WEATHER ROUNDUP
NATIONAL WEATHER SERVICE MEMPHIS TN
700 PM CDT MON OCT 23 2017

TNZ002-004-019-021-049-052-054-088>092-240100-
WEST TENNESSEE

CITY           SKY/WX    TMP DP  RH WIND       PRES   REMARKS
MEMPHIS INTL   PTCLDY    63  45  51 SW7       29.91S
NWS MEMPHIS      N/A     63 N/A N/A MISG        N/A
JACKSON        CLEAR     57  49  74 S7        29.90S
DYERSBURG        N/A     61  48  62 S6        29.88R
SOMERVILLE     CLEAR     59  50  72 S5        29.89F
COVINGTON      CLEAR     63  45  51 S6        29.89R
UNION CITY     CLEAR     55  48  76 S7        29.85S
BOLIVAR        CLEAR     57  46  67 S5        29.91S
PARIS          CLEAR     52  46  82 S5        29.86F
HUNTINGDON     CLEAR     57  46  67 S3        29.87F
LEXINGTON      CLEAR     55  48  76 S3        29.91R
SELMER         CLEAR     54  48  82 SW5       29.92S
SAVANNAH       CLEAR     52  52 100 CALM      29.92R
$$

TNZ008-025-027-028-033-062-065-066-240100-
NORTH MIDDLE TENNESSEE

CITY           SKY/WX    TMP DP  RH WIND       PRES   REMARKS
NASHVILLE      PTCLDY    54  48  80 SW7       29.90R
PORTLAND       CLEAR     52  46  82 SW6       29.88R
CLARKSVILLE    PTCLDY    55  46  71 SW6       29.88R
SMYRNA         CLEAR     54  48  80 S6        29.91S
COOKEVILLE     CLOUDY    54  50  87 SW3       29.90R
CROSSVILLE     CLOUDY    51  50  96 W13       29.90R FOG
$$

TNZ061-075-076-078-094-096-097-240100-
SOUTH MIDDLE TENNESSEE

CITY           SKY/WX    TMP DP  RH WIND       PRES   REMARKS
FAYETTEVILLE   CLEAR     54  48  82 CALM      29.94S
TULLAHOMA      CLEAR     48  46  93 SW3       29.96R
WINCHESTER     MOCLDY    55  50  82 W6          N/A
COLUMBIA       CLEAR     54  48  82 SE5       29.91R
SHELBYVILLE    CLEAR     50  48  93 SW6       29.94R
$$

TNZ017-018-042-046-047-240100-
NORTHEAST TENNESSEE

CITY           SKY/WX    TMP DP  RH WIND       PRES   REMARKS
TRI CITIES     CLOUDY    57  56  96 SW10      29.84R
ELIZABETHTON     N/A     59  55  88 W7G15     29.84R
$$

TNZ012-013-036-069-073-074-240100-
CENTRAL EAST TENNESSEE

CITY           SKY/WX    TMP DP  RH WIND       PRES   REMARKS
KNOXVILLE      MOCLDY    60  55  83 W12       29.86R
OAK RIDGE      CLOUDY    59  53  80 SW5       29.88R
DOWNTOWN KNOXV MOCLDY    61  54  77 W9        29.86R
GATLINBURG     CLOUDY    63  52  67 W9G23     29.85R
MORRISTOWN     MOCLDY    59  55  88 W14       29.84R
JACKSBORO      CLOUDY    57  52  82 VRB3      29.89R
$$

TNZ083-085-099-240100-
SOUTHEAST TENNESSEE

CITY           SKY/WX    TMP DP  RH WIND       PRES   REMARKS
CHATTANOOGA    DRIZZLE   59  52  77 SW13      29.94R
DAYTON         CLOUDY    61  55  82 SW7       29.90R
$$

SKY/WX REPORTED AS FAIR MEANS FEW OR NO CLOUDS BELOW
12 THOUSAND FEET.




USA.gov is the U.S. government's official web portal to all federal, state and local government web resources and services.